• In Deutschland
  • Länderverzeichnis
  • Für 7 Tage
  • Wassertemperatur
  • Satellitenkarten
  • Wetterkarte
  • Widgets
  • user-avatar
    Anmelden

    Stündliche Wetter Głogów

    Heute, 11 Dezember, Montag

    Zeit Temperatur Niederschläge Wind Luftdruck Luftfeuchtigkeit
    00:00 +1°C° 0 mm 5 m/S 733 mmHg 78%
    01:00 0°C° 0 mm 5 m/S 732 mmHg 78%
    02:00 +1°C° 0,4 mm 5 m/S 733 mmHg 78%
    03:00 +2°C° 0,4 mm 6 m/S 733 mmHg 77%
    04:00 +3°C° 0,4 mm 6 m/S 733 mmHg 77%
    05:00 +3°C° 0 mm 6 m/S 733 mmHg 77%
    06:00 +3°C° 0 mm 6 m/S 734 mmHg 77%
    07:00 +3°C° 0 mm 6 m/S 734 mmHg 77%
    08:00 +3°C° 0 mm 5 m/S 734 mmHg 76%
    09:00 +3°C° 0 mm 5 m/S 734 mmHg 76%
    10:00 +4°C° 0 mm 4 m/S 735 mmHg 75%
    11:00 +5°C° 0 mm 4 m/S 735 mmHg 75%
    12:00 +5°C° 0 mm 3 m/S 734 mmHg 75%
    13:00 +5°C° 0 mm 3 m/S 734 mmHg 75%
    14:00 +5°C° 0 mm 3 m/S 734 mmHg 78%
    15:00 +5°C° 0 mm 3 m/S 733 mmHg 81%
    16:00 +4°C° 0 mm 3 m/S 733 mmHg 85%
    17:00 +5°C° 0 mm 3 m/S 732 mmHg 85%
    18:00 +5°C° 0 mm 3 m/S 732 mmHg 86%
    19:00 +5°C° 0 mm 3 m/S 732 mmHg 86%
    20:00 +5°C° 0 mm 3 m/S 732 mmHg 85%
    21:00 +7°C° 0 mm 3 m/S 732 mmHg 83%
    22:00 +7°C° 0 mm 3 m/S 733 mmHg 82%
    23:00 +7°C° 0 mm 3 m/S 733 mmHg 83%

    Morgen, 12 Dezember, Dienstag

    Zeit Temperatur Niederschläge Wind Luftdruck Luftfeuchtigkeit
    00:00 +5°C° 0 mm 3 m/S 734 mmHg 83%
    01:00 +5°C° 0 mm 3 m/S 735 mmHg 84%
    02:00 +5°C° 0,1 mm 3 m/S 735 mmHg 84%
    03:00 +5°C° 0,1 mm 3 m/S 736 mmHg 85%
    04:00 +5°C° 0,1 mm 3 m/S 737 mmHg 85%
    05:00 +5°C° 0,1 mm 4 m/S 737 mmHg 82%
    06:00 +6°C° 0,1 mm 5 m/S 738 mmHg 78%
    07:00 +6°C° 0,1 mm 5 m/S 738 mmHg 74%
    08:00 +5°C° 0 mm 6 m/S 739 mmHg 71%
    09:00 +5°C° 0 mm 7 m/S 739 mmHg 68%
    10:00 +6°C° 0 mm 7 m/S 740 mmHg 64%
    11:00 +6°C° 0 mm 8 m/S 741 mmHg 63%
    12:00 +5°C° 0 mm 9 m/S 741 mmHg 61%
    13:00 +5°C° 0 mm 9 m/S 742 mmHg 59%
    14:00 +3°C° 0 mm 9 m/S 743 mmHg 62%
    15:00 +4°C° 0 mm 8 m/S 744 mmHg 65%
    16:00 +3°C° 0 mm 7 m/S 746 mmHg 67%
    17:00 +3°C° 0 mm 7 m/S 747 mmHg 67%
    18:00 +2°C° 0 mm 7 m/S 747 mmHg 67%
    19:00 +2°C° 0 mm 7 m/S 748 mmHg 66%
    20:00 0°C° 0 mm 7 m/S 749 mmHg 68%
    21:00 +1°C° 0 mm 6 m/S 750 mmHg 70%
    22:00 +1°C° 0 mm 6 m/S 751 mmHg 72%
    23:00 +1°C° 0 mm 6 m/S 751 mmHg 75%

    übermorgen, 13 Dezember, Mittwoch

    Zeit Temperatur Niederschläge Wind Luftdruck Luftfeuchtigkeit
    00:00 0°C° 0 mm 5 m/S 752 mmHg 78%
    01:00 0°C° 0 mm 5 m/S 753 mmHg 81%
    02:00 0°C° 0 mm 5 m/S 753 mmHg 82%
    03:00 0°C° 0 mm 4 m/S 753 mmHg 84%
    04:00 -1°C° 0 mm 4 m/S 754 mmHg 86%
    05:00 -1°C° 0 mm 4 m/S 754 mmHg 86%
    06:00 -1°C° 0 mm 4 m/S 754 mmHg 86%
    07:00 -2°C° 0 mm 4 m/S 755 mmHg 86%
    08:00 -1°C° 0 mm 4 m/S 755 mmHg 82%
    09:00 -1°C° 0 mm 4 m/S 755 mmHg 77%
    10:00 0°C° 0 mm 4 m/S 755 mmHg 73%
    11:00 +1°C° 0 mm 4 m/S 754 mmHg 69%
    12:00 +1°C° 0 mm 5 m/S 753 mmHg 65%
    13:00 +2°C° 0 mm 5 m/S 753 mmHg 61%
    14:00 +1°C° 0 mm 5 m/S 752 mmHg 63%
    15:00 0°C° 0 mm 5 m/S 752 mmHg 64%
    16:00 0°C° 0 mm 4 m/S 751 mmHg 66%
    17:00 0°C° 0 mm 5 m/S 750 mmHg 65%
    18:00 0°C° 0 mm 5 m/S 750 mmHg 63%
    19:00 -1°C° 0 mm 6 m/S 749 mmHg 61%
    20:00 -1°C° 0,1 mm 6 m/S 748 mmHg 60%
    21:00 -1°C° 0,1 mm 6 m/S 748 mmHg 59%
    22:00 +1°C° 0,1 mm 6 m/S 747 mmHg 58%
    23:00 +1°C° 0,2 mm 6 m/S 746 mmHg 62%

    14 Dezember, Donnerstag

    Zeit Temperatur Niederschläge Wind Luftdruck Luftfeuchtigkeit
    00:00 +1°C° 0,2 mm 6 m/S 745 mmHg 65%
    01:00 +1°C° 0,2 mm 5 m/S 745 mmHg 68%
    02:00 +1°C° 0 mm 5 m/S 744 mmHg 69%
    03:00 +1°C° 0 mm 6 m/S 743 mmHg 71%
    04:00 +2°C° 0 mm 6 m/S 743 mmHg 72%
    05:00 +2°C° 0,1 mm 6 m/S 742 mmHg 72%
    06:00 +2°C° 0,1 mm 6 m/S 742 mmHg 72%
    07:00 +2°C° 0,1 mm 6 m/S 741 mmHg 71%
    08:00 +3°C° 0,1 mm 6 m/S 742 mmHg 72%
    09:00 +3°C° 0,1 mm 6 m/S 742 mmHg 73%
    10:00 +4°C° 0,1 mm 6 m/S 742 mmHg 74%
    11:00 +4°C° 0 mm 6 m/S 741 mmHg 73%
    12:00 +4°C° 0 mm 6 m/S 741 mmHg 71%
    13:00 +6°C° 0 mm 5 m/S 740 mmHg 70%
    14:00 +5°C° 0 mm 5 m/S 740 mmHg 72%
    15:00 +5°C° 0 mm 5 m/S 739 mmHg 74%
    16:00 +5°C° 0 mm 5 m/S 739 mmHg 76%
    17:00 +5°C° 0,1 mm 5 m/S 738 mmHg 76%
    18:00 +5°C° 0,1 mm 5 m/S 737 mmHg 76%
    19:00 +4°C° 0,1 mm 6 m/S 737 mmHg 76%
    20:00 +3°C° 0,8 mm 6 m/S 736 mmHg 78%
    21:00 +3°C° 0,8 mm 6 m/S 736 mmHg 80%
    22:00 +3°C° 0,8 mm 6 m/S 736 mmHg 82%
    23:00 +3°C° 0,5 mm 6 m/S 737 mmHg 80%

    15 Dezember, Freitag

    Zeit Temperatur Niederschläge Wind Luftdruck Luftfeuchtigkeit
    00:00 +2°C° 0,5 mm 5 m/S 738 mmHg 79%
    01:00 +1°C° 0,5 mm 5 m/S 739 mmHg 77%
    02:00 +1°C° 0 mm 5 m/S 739 mmHg 79%
    03:00 0°C° 0 mm 5 m/S 740 mmHg 81%
    04:00 0°C° 0 mm 4 m/S 740 mmHg 82%
    05:00 0°C° 0 mm 4 m/S 741 mmHg 83%
    06:00 -1°C° 0 mm 4 m/S 741 mmHg 83%
    07:00 -1°C° 0 mm 4 m/S 741 mmHg 84%
    08:00 0°C° 0 mm 4 m/S 741 mmHg 80%
    09:00 0°C° 0 mm 4 m/S 742 mmHg 76%
    10:00 0°C° 0 mm 5 m/S 742 mmHg 72%
    11:00 +1°C° 0 mm 4 m/S 742 mmHg 68%
    12:00 +3°C° 0 mm 4 m/S 742 mmHg 64%
    13:00 +3°C° 0 mm 3 m/S 741 mmHg 59%
    14:00 +3°C° 0 mm 3 m/S 741 mmHg 64%
    15:00 +3°C° 0 mm 2 m/S 741 mmHg 69%
    16:00 +2°C° 0 mm 2 m/S 741 mmHg 74%
    17:00 +2°C° 0 mm 2 m/S 741 mmHg 76%
    18:00 +2°C° 0 mm 2 m/S 741 mmHg 78%
    19:00 +2°C° 0 mm 2 m/S 741 mmHg 80%
    20:00 +2°C° 0 mm 2 m/S 741 mmHg 82%
    21:00 +1°C° 0 mm 2 m/S 741 mmHg 83%
    22:00 +1°C° 0 mm 2 m/S 741 mmHg 85%
    23:00 +1°C° 0 mm 2 m/S 742 mmHg 87%

    16 Dezember, Samstag

    Zeit Temperatur Niederschläge Wind Luftdruck Luftfeuchtigkeit
    00:00 +1°C° 0 mm 2 m/S 742 mmHg 89%
    01:00 +1°C° 0 mm 2 m/S 742 mmHg 90%
    02:00 +1°C° 0 mm 2 m/S 742 mmHg 90%
    03:00 -1°C° 0 mm 2 m/S 742 mmHg 91%
    04:00 -1°C° 0 mm 2 m/S 742 mmHg 91%
    05:00 -1°C° 0 mm 2 m/S 742 mmHg 90%
    06:00 -1°C° 0 mm 2 m/S 743 mmHg 90%
    07:00 -1°C° 0 mm 2 m/S 743 mmHg 90%
    08:00 +1°C° 0 mm 2 m/S 743 mmHg 86%
    09:00 0°C° 0 mm 3 m/S 744 mmHg 83%
    10:00 +1°C° 0 mm 3 m/S 744 mmHg 80%
    11:00 +2°C° 0,1 mm 3 m/S 745 mmHg 80%
    12:00 +2°C° 0,1 mm 3 m/S 745 mmHg 79%
    13:00 +2°C° 0,1 mm 3 m/S 745 mmHg 79%
    14:00 +2°C° 0 mm 3 m/S 745 mmHg 82%
    15:00 +1°C° 0 mm 3 m/S 746 mmHg 84%
    16:00 +1°C° 0 mm 3 m/S 746 mmHg 87%
    17:00 0°C° 0 mm 4 m/S 747 mmHg 87%
    18:00 0°C° 0 mm 4 m/S 747 mmHg 87%
    19:00 -1°C° 0 mm 4 m/S 748 mmHg 87%
    20:00 0°C° 0 mm 4 m/S 748 mmHg 86%
    21:00 0°C° 0 mm 4 m/S 749 mmHg 84%
    22:00 0°C° 0 mm 4 m/S 749 mmHg 83%
    23:00 0°C° 0 mm 4 m/S 749 mmHg 84%
    Mehr zeigen